Content
SEND FEEDBACK

Daily
Averages
Monthly
Summary
United States of America

SOUTH LAKE TAHOE - AIRPORT, CALIFORNIA


Home > North America > United States > California
Elevation: 1905 meters     Latitude: 38 54N     Longitude: 120 00W

WEATHER
 
SELECT A DAY
Number of Records: 172,690;   Date Range: 1/1/95 - 4/16/14
 
SHARE

PRINT THIS DATA

[ ← Previous Day ]
WEATHER ALMANAC - 14 JANUARY, 2013
[ Next Day → ]
[ °F ]   °C
Weather ElementAverageHighLow
Temperature-10.4 °C0.6 °C (11:53 am)-22.8 °C (2:53 am)
Dewpoint-17.5 °C-10 °C (6:53 pm)-26.7 °C (4:53 am)
Humidity60.1 %77 % (11:53 pm)29 % (11:53 am)
Barometer1031.2 hPa1034.5 hPa (7:53 pm)1027.1 hPa (1:53 am)
Wind Speed4.8 km/h14.8 km/h (12:53 pm)
Weather ElementAverage
Visibility14.8 km
Wind DirectionENE (70 °)

Weather ElementTotal
Precipitation0.25 mm
Heating Degree Days29.4 (Base 18.3)
Averaged from 22 records on 14 January, 2013
WEATHER CONDITIONS BREAKOUT
WIND DIRECTION BREAKOUT
WEATHER BY HOUR - 14 JANUARY, 2013
[ °F ]   °C
Local TimeTemperatureDewpointHumidityBarometerVisibilityWind DirectionWind SpeedGust SpeedPrecipitationEventsConditions
1:53 AM-22.2 °C-25.6 °C75 %1027.1 hPa11.3 kmSSW (200°)5.6 km/hClear
2:53 AM-22.8 °C-26.1 °C75 %1028.1 hPa11.3 kmCalmClear
3:53 AM-22.2 °C-26.1 °C71 %1028.8 hPa11.3 kmCalmClear
4:53 AM-22.8 °C-26.7 °C71 %1030.1 hPa11.3 kmSSW (200°)5.6 km/hClear
5:53 AM-22.8 °C-26.7 °C71 %1031.5 hPa14.5 kmSouth (190°)5.6 km/hClear
6:53 AM-22.2 °C-26.1 °C71 %1032.2 hPa16.1 kmCalmClear
7:53 AM-22.2 °C-26.1 °C71 %1033.9 hPa12.9 kmSSW (200°)7.4 km/hClear
8:53 AM-16.1 °C-20 °C73 %1032.5 hPa16.1 kmSouth (180°)7.4 km/hClear
9:53 AM-11.7 °C-16.7 °C67 %1032.8 hPa12.9 kmCalmClear
10:53 AM-5.6 °C-15.6 °C46 %1030.1 hPa16.1 kmSouth (180°)9.3 km/hClear
11:53 AM0.6 °C-15.6 °C29 %1027.4 hPa16.1 kmVariable5.6 km/hClear
12:53 PM0.6 °C-14.4 °C32 %1028.4 hPa16.1 kmNNE (20°)14.8 km/hClear
2:53 PM0.6 °C-15.6 °C29 %1031.2 hPa16.1 kmNNE (20°)14.8 km/h0.25 mmClear
3:53 PM-0.6 °C-13.9 °C37 %1031.5 hPa16.1 kmVariable7.4 km/hClear
4:53 PM-1.7 °C-12.2 °C45 %1032.5 hPa16.1 kmVariable5.6 km/hClear
5:53 PM-3.3 °C-11.7 °C53 %1033.9 hPa14.5 kmCalmPartly Cloudy
6:53 PM-3.3 °C-10 °C60 %1034.2 hPa16.1 kmCalmOvercast
7:53 PM-5 °C-11.1 °C63 %1034.5 hPa16.1 kmCalmPartly Cloudy
8:53 PM-4.4 °C-10 °C65 %1032.2 hPa16.1 kmCalmPartly Cloudy
9:53 PM-6.1 °C-11.1 °C68 %1031.8 hPa16.1 kmSouth (170°)9.3 km/hClear
10:53 PM-7.8 °C-11.7 °C74 %1030.5 hPa16.1 kmSouth (180°)7.4 km/hClear
11:53 PM-8.3 °C-11.7 °C77 %1029.1 hPa16.1 kmCalmClear
Hourly data recorded from KTVL, located 0.8 kilometers away from South Lake Tahoe - Airport, California







STORIES FROM OUR PARTNERS